Regional Weather Roundup
Issued by NWS Green Bay, WI

Home | Current Version | Previous Version | Graphics & Text | Print | Product List | Glossary Off
Versions: 1 2 3 4 5 6 7 8 9 10 11 12 13 14 15 16 17 18 19 20 21 22 23 24 25 26 27 28 29 30 31 32 33 34 35 36 37 38 39 40 41 42 43 44 45 46 47 48 49 50

000
ASUS43 KGRB 312200
RWRGRB

NORTH-CENTRAL AND NORTHEAST WISCONSIN REGIONAL WEATHER ROUNDUP
NATIONAL WEATHER SERVICE GREEN BAY WI
500 PM CDT MON AUG 31 2015

WIZ005-009-010>012-018-019-312300-
NORTH CENTRAL WISCONSIN

CITY           SKY/WX    TMP DP  RH WIND       PRES   REMARKS
IRONWOOD       SUNNY     79  64  61 SW12G17   29.87R
MANITOWISH WTR NOT AVBL
ARBOR VITAE    NOT AVBL
EAGLE RIVER    NOT AVBL
LAND O LAKES   NOT AVBL
RHINELANDER    SUNNY     77  66  68 S10       29.99F
PHILLIPS       MOSUNNY   75  67  76 S9        29.97F
ANTIGO         NOT AVBL
TOMAHAWK       NOT AVBL
MERRILL        MOSUNNY   76  67  76 SW9       30.00S
$$

WIZ013-073-312300-
NORTHEAST WISCONSIN

CITY           SKY/WX    TMP DP  RH WIND       PRES   REMARKS
IRON MOUNTAIN  SUNNY     84  65  52 S10       29.93F
MARINETTE      SUNNY     77  66  69 SW10      29.95F
$$

WIZ017-030-035>037-045-312300-
CENTRAL WISCONSIN

CITY           SKY/WX    TMP DP  RH WIND       PRES   REMARKS
MEDFORD        NOT AVBL
WAUSAU         SUNNY     77  66  68 SW8       29.99S
MOSINEE        PTSUNNY   77  70  78 S7        30.01S
MARSHFIELD     MOSUNNY   80  66  62 S10       29.99F
WISC RAPIDS    SUNNY     81  67  62 SW12      30.00F
STEVENS POINT  NOT AVBL
WAUPACA        NOT AVBL
SHAWANO        NOT AVBL
CLINTONVILLE   SUNNY     79  66  65 SW9       29.98F
WAUTOMA        NOT AVBL
$$

WIZ038-039-048-051-312300-
FOX VALLEY

CITY           SKY/WX    TMP DP  RH WIND       PRES   REMARKS
NWS GREEN BAY  SUNNY     78  68  71 SW9       29.99S
APPLETON       MOSUNNY   79  66  65 S12       29.98F
OSHKOSH        SUNNY     79  68  69 S9        29.99F
FOND DU LAC    SUNNY     79  68  69 SW6       30.00F
$$

WIZ022-050-052-312300-
EAST CENTRAL WISCONSIN

CITY           SKY/WX    TMP DP  RH WIND       PRES   REMARKS
EPHRAIM        FAIR      75  66  73 SW6       29.97F
STURGEON BAY   SUNNY     75  66  73 S6        30.00S
MANITOWOC      NOT AVBL
SHEBOYGAN      SUNNY     79  68  69 SW10      30.00F
$$

LMZ563-521-522-541>543-312300-
LAKESHORE

STATION/POSITION TIME  TEMP    WIND        PRES    VSBY  WAVE
                       AIR SEA DIR/SP/G                  HT/PER
                 (UTC) (F)     (DEG/KT/KT) (MB)    (MI)  (FT/S)
SHEBOYGAN LKSHOR 2100   68     180/ 19/ 20 1016.2F
KEWAUNEE LKSHORE 2100   55     170/ 14/ 16 1014.7F
NORTHPORT PIER   2100   72     160/  5/ 10 1014.9S
N MID LAKE BUOY  2050   65 65  200/ 16/ 17 1014.9F         3/ 4
S GREEN BAY BUOY 2100   69 64  210/  8/  8 1016.6
CHAMBERS ISLAND  2100   74     190/  7/ 13 1014.9F
MENOMINEE LKSHOR 2100   72     180/  8/ 12 1013.7F
$$


USA.gov is the U.S. government's official web portal to all federal, state and local government web resources and services.